Zurück zum Katalog

MICROSCOPE

AktivWissenschaftSSO
NORAD 41457·PAYLOAD·🇫🇷 France

Gestartet Apr 25, 2016 von Guiana Space Centre

Loading…

Nächste Überflüge (nächste 24 Stunden)

TLE

AktuellSource: Space-Track

Epoche: Sep 14, 2026, 12:00 UTC

1 41457U 16025B   26257.50037324  .00000552  00000-0  12552-3 0  9991
2 41457  98.2456 269.6244 0000937  82.3663 277.7643 14.59703894551756

Verfolge MICROSCOPE in Echtzeit mit AllMySat

Download on the App Store